MINOTAUR R/B

基本信息
目录编号:
42927
目录名称:
MINOTAUR R/B
国际标识:
2017-050G
轨道中心:
EARTH
物体状态:
已陨落(2024-02-12)
发射日期:
2017-08-26 UTC
国别:
美国 (US)
轨道信息
数据来源: 国际轨道数据
星历时间: 2024-02-12T19:15:20+0800
半长轴: 6559.11km
偏心率: 0.0007857
轨道倾角: 24.493°
近地点辐角: 231.149°
升交点赤经: 347.638°
平近点角: 250.558°
近地点: 175.821km
远地点: 186.129km
周期: 88.110分钟
每日圈数: 16.343138
详细信息
发射场:
AFETR
轨道高度:
LEO
数据来源:
AOE Integration Group
参考系:
TEME
时间系统:
UTC
历元类型:
SGP4
2D轨道图
3D轨道图
轨道高度分析图
轨道倾角分析图
轨道综合分析图
查看轨道综合分析图